| time (UTC) | temp C | wind direction | speed KPH | gust KPH | rain 1hr cm | rain 24hr cm | rain mn cm | humidity % | barometer mb |
| 20260502190027 | 16 | 115 | 16.1 | 27.4 | 0.00 | 0.00 | 0.00 | 23 | 951.3 |
| 20260502184507 | 16 | 98 | 17.7 | 22.5 | 0.00 | 0.00 | 0.00 | 23 | 951.6 |
| 20260502183042 | 16 | 97 | 9.7 | 22.5 | 0.00 | 0.00 | 0.00 | 25 | 951.8 |
| 20260502181532 | 15 | 100 | 16.1 | 24.1 | 0.00 | 0.00 | 0.00 | 23 | 952.0 |
| 20260502163014 | 13 | 124 | 14.5 | 22.5 | 0.00 | 0.00 | 0.00 | 30 | 952.4 |
| 20260502161548 | 13 | 155 | 12.9 | 20.9 | 0.00 | 0.00 | 0.00 | 33 | 952.4 |
| 20260502151525 | 11 | 139 | 16.1 | 27.4 | 0.00 | 0.00 | 0.00 | 35 | 952.5 |
| 20260502150108 | 11 | 121 | 19.3 | 29.0 | 0.00 | 0.00 | 0.00 | 34 | 952.6 |
| 20260502123017 | 6 | 86 | 6.4 | 12.9 | 0.00 | 0.00 | 0.00 | 43 | 952.2 |
| 20260502121549 | 6 | 36 | 3.2 | 6.4 | 0.00 | 0.00 | 0.00 | 45 | 952.3 |
| 20260502114603 | 8 | 117 | 12.9 | 20.9 | 0.00 | 0.00 | 0.00 | 40 | 952.2 |
| 20260502114508 | 8 | 100 | 12.9 | 20.9 | 0.00 | 0.00 | 0.00 | 39 | 952.2 |
| 20260502113044 | 8 | 81 | 14.5 | 20.9 | 0.00 | 0.00 | 0.00 | 36 | 952.3 |
| 20260502111521 | 8 | 92 | 12.9 | 19.3 | 0.00 | 0.00 | 0.00 | 38 | 952.4 |
| 20260502104540 | 8 | 111 | 11.3 | 17.7 | 0.00 | 0.00 | 0.00 | 37 | 952.5 |
| 20260502103014 | 8 | 105 | 12.9 | 19.3 | 0.00 | 0.00 | 0.00 | 39 | 952.5 |
| 20260502101615 | 8 | 93 | 14.5 | 20.9 | 0.00 | 0.00 | 0.00 | 39 | 952.6 |
| 20260502091521 | 8 | 96 | 11.3 | 17.7 | 0.00 | 0.00 | 0.00 | 37 | 952.6 |
| 20260502070045 | 10 | 54 | 0.0 | 4.8 | 0.00 | 0.00 | 0.00 | 28 | 953.1 |
| 20260502064532 | 11 | 54 | 1.6 | 4.8 | 0.00 | 0.00 | 0.00 | 28 | 953.1 |
| 20260502063026 | 11 | 54 | 1.6 | 3.2 | 0.00 | 0.00 | 0.00 | 26 | 953.2 |
| 20260502061513 | 11 | 54 | 0.0 | 1.6 | 0.00 | 0.00 | 0.00 | 27 | 953.1 |
| 20260502060013 | 11 | 54 | 0.0 | 1.6 | 0.00 | 0.00 | 0.00 | 27 | 953.3 |
| 20260502054604 | 11 | 54 | 1.6 | 4.8 | 0.00 | 0.00 | 0.00 | 26 | 953.2 |
| 20260502054502 | 11 | 54 | 1.6 | 4.8 | 0.00 | 0.00 | 0.00 | 26 | 953.2 |
| 20260502053007 | 11 | 301 | 0.0 | 1.6 | 0.00 | 0.00 | 0.00 | 27 | 953.3 |
| 20260502051522 | 11 | 301 | 0.0 | 3.2 | 0.00 | 0.00 | 0.00 | 26 | 953.3 |
| 20260502050017 | 11 | 301 | 0.0 | 3.2 | 0.00 | 0.00 | 0.00 | 26 | 953.5 |
| 20260502044527 | 11 | 301 | 0.0 | 0.0 | 0.00 | 0.00 | 0.00 | 26 | 953.5 |
| 20260502043027 | 11 | 301 | 0.0 | 0.0 | 0.00 | 0.00 | 0.00 | 26 | 953.5 |
| 20260502041541 | 11 | 301 | 0.0 | 1.6 | 0.00 | 0.00 | 0.00 | 24 | 953.5 |
| 20260502040045 | 11 | 301 | 0.0 | 0.0 | 0.00 | 0.00 | 0.00 | 23 | 953.5 |
| 20260502034549 | 11 | 301 | 0.0 | 0.0 | 0.00 | 0.00 | 0.00 | 24 | 953.5 |
| 20260502033103 | 11 | 301 | 0.0 | 3.2 | 0.00 | 0.00 | 0.00 | 23 | 953.5 |
| 20260502031603 | 11 | 301 | 0.0 | 1.6 | 0.00 | 0.00 | 0.00 | 22 | 953.4 |
| 20260502031503 | 11 | 301 | 0.0 | 1.6 | 0.00 | 0.00 | 0.00 | 22 | 953.4 |
| 20260502030009 | 10 | 301 | 0.0 | 1.6 | 0.00 | 0.00 | 0.00 | 23 | 953.3 |
| 20260502024532 | 11 | 296 | 0.0 | 1.6 | 0.00 | 0.00 | 0.00 | 23 | 953.2 |
| 20260502023021 | 11 | 309 | 0.0 | 1.6 | 0.00 | 0.00 | 0.00 | 24 | 953.2 |
| 20260502021527 | 12 | 309 | 0.0 | 1.6 | 0.00 | 0.00 | 0.00 | 23 | 953.1 |
| 20260502020031 | 12 | 304 | 0.0 | 11.3 | 0.00 | 0.00 | 0.00 | 24 | 953.2 |
| 20260502014539 | 13 | 275 | 3.2 | 11.3 | 0.00 | 0.00 | 0.00 | 23 | 952.9 |
| 20260502013025 | 14 | 332 | 3.2 | 6.4 | 0.00 | 0.00 | 0.00 | 23 | 953.0 |
| 20260502011506 | 14 | 323 | 3.2 | 8.0 | 0.00 | 0.00 | 0.00 | 23 | 953.0 |
| 20260502010043 | 14 | 315 | 3.2 | 16.1 | 0.00 | 0.00 | 0.00 | 24 | 953.0 |
| 20260502004519 | 15 | 336 | 4.8 | 16.1 | 0.00 | 0.00 | 0.00 | 25 | 953.0 |
| 20260502003057 | 15 | 345 | 4.8 | 9.7 | 0.00 | 0.00 | 0.00 | 24 | 952.9 |
| 20260502001531 | 15 | 311 | 4.8 | 12.9 | 0.00 | 0.00 | 0.00 | 25 | 952.9 |
| 20260502000011 | 15 | 287 | 6.4 | 17.7 | 0.00 | 0.00 | 0.00 | 26 | 952.9 |
| 20260501234545 | 15 | 290 | 1.6 | 12.9 | 0.00 | 0.00 | 0.00 | 25 | 952.9 |
| 20260501233025 | 15 | 327 | 6.4 | 19.3 | 0.00 | 0.00 | 0.00 | 26 | 952.8 |
| 20260501231603 | 15 | 299 | 8.0 | 19.3 | 0.00 | 0.00 | 0.00 | 26 | 952.9 |
| 20260501231509 | 15 | 311 | 8.0 | 19.3 | 0.00 | 0.00 | 0.00 | 27 | 952.9 |
| 20260501230045 | 15 | 282 | 8.0 | 17.7 | 0.00 | 0.00 | 0.00 | 26 | 953.1 |
| 20260501224520 | 15 | 289 | 11.3 | 20.9 | 0.00 | 0.00 | 0.00 | 26 | 953.1 |
| 20260501223108 | 15 | 313 | 14.5 | 20.9 | 0.00 | 0.00 | 0.00 | 28 | 953.3 |
| 20260501221531 | 15 | 312 | 4.8 | 17.7 | 0.00 | 0.00 | 0.00 | 28 | 953.5 |
| 20260501220010 | 15 | 200 | 4.8 | 17.7 | 0.00 | 0.00 | 0.00 | 31 | 953.7 |
| 20260501214546 | 15 | 351 | 8.0 | 17.7 | 0.00 | 0.00 | 0.00 | 30 | 953.8 |
| 20260501213021 | 15 | 120 | 6.4 | 19.3 | 0.00 | 0.00 | 0.00 | 31 | 953.9 |
| 20260501211559 | 14 | 350 | 6.4 | 19.3 | 0.00 | 0.00 | 0.00 | 29 | 954.1 |
| 20260501211501 | 14 | 339 | 4.8 | 19.3 | 0.00 | 0.00 | 0.00 | 30 | 954.1 |
| 20260501210039 | 15 | 340 | 6.4 | 17.7 | 0.00 | 0.00 | 0.00 | 29 | 954.1 |
| 20260501204515 | 14 | 64 | 4.8 | 12.9 | 0.00 | 0.00 | 0.00 | 34 | 954.0 |
| 20260501203102 | 14 | 316 | 6.4 | 16.1 | 0.00 | 0.00 | 0.00 | 32 | 954.1 |
| 20260501201529 | 14 | 306 | 3.2 | 16.1 | 0.00 | 0.00 | 0.00 | 37 | 954.2 |
| 20260501200012 | 13 | 276 | 8.0 | 14.5 | 0.00 | 0.00 | 0.00 | 32 | 954.2 |
| 20260501194543 | 13 | 355 | 6.4 | 20.9 | 0.00 | 0.00 | 0.00 | 33 | 954.4 |
| 20260501193023 | 13 | 243 | 9.7 | 19.3 | 0.00 | 0.00 | 0.00 | 35 | 954.5 |
| 20260501191557 | 13 | 248 | 11.3 | 19.3 | 0.00 | 0.00 | 0.00 | 33 | 954.6 |
| 20260501191503 | 13 | 246 | 11.3 | 19.3 | 0.00 | 0.00 | 0.00 | 33 | 954.6 |